Voltar ao catálogo

CZ-6A R/B

AtivoLEO
NORAD 67434·ROCKET BODY·🇨🇳 China

Lançado Jan 13, 2026 de Taiyuan Satellite Launch Center

Loading…

Próximas Passagens (próximas 24 horas)

TLE

AtualizadoSource: Space-Track

Época: Sep 14, 2026, 18:03 UTC

1 67434U 26006B   26257.75271974  .00000658  00000-0  47241-4 0  9993
2 67434 142.0454  92.5290 0200490  77.3877 284.9215 14.62656852 35764

Acompanhe CZ-6A R/B em tempo real com AllMySat

Download on the App Store